Tabellarische Ansicht des 14.7.2012


Die einzelnen Werte des Tages

Uhrzeit Temperatur Luftdruck Luftfeuchte Wind Hi-Wind Taupunkt THW Index Wind Chill Heat Index Solar- strahlung Regen

00:00

15.9 C

998.1 hpa

90 %

9.7 km/h aus 111

16.1 km/h aus SSE

14.3 C

15.9 C

15.7 C

16.1 C

0 W/m

0.00 mm

00:05

15.8 C

998.1 hpa

90 %

6.4 km/h aus 99

9.7 km/h aus S

14.2 C

16.1 C

15.8 C

16.1 C

0 W/m

0.00 mm

00:10

15.8 C

998.1 hpa

90 %

6.4 km/h aus 94

11.3 km/h aus S

14.1 C

15.9 C

15.8 C

15.9 C

0 W/m

0.25 mm

00:15

15.7 C

998.1 hpa

90 %

6.4 km/h aus 96

11.3 km/h aus S

14.1 C

15.9 C

15.7 C

15.9 C

0 W/m

0.00 mm

00:20

15.8 C

998.1 hpa

90 %

8.0 km/h aus 107

19.3 km/h aus S

14.2 C

16.1 C

15.8 C

16.1 C

0 W/m

0.00 mm

00:25

15.9 C

998.1 hpa

90 %

9.7 km/h aus 112

17.7 km/h aus SSW

14.3 C

15.9 C

15.7 C

16.1 C

0 W/m

0.00 mm

00:30

15.9 C

998.1 hpa

90 %

6.4 km/h aus 108

16.1 km/h aus SSW

14.3 C

16.2 C

15.9 C

16.2 C

0 W/m

0.00 mm

00:35

15.9 C

998.1 hpa

90 %

9.7 km/h aus 105

16.1 km/h aus SSW

14.3 C

16.0 C

15.8 C

16.2 C

0 W/m

0.00 mm

00:40

15.8 C

998.1 hpa

90 %

11.3 km/h aus 103

19.3 km/h aus S

14.2 C

15.7 C

15.4 C

16.1 C

0 W/m

0.00 mm

00:45

15.8 C

998.1 hpa

90 %

12.9 km/h aus 107

22.5 km/h aus S

14.2 C

15.3 C

15.1 C

16.1 C

0 W/m

0.00 mm

00:50

15.8 C

998.1 hpa

90 %

9.7 km/h aus 108

19.3 km/h aus S

14.1 C

15.8 C

15.6 C

15.9 C

0 W/m

0.00 mm

00:55

15.8 C

998.1 hpa

90 %

9.7 km/h aus 107

16.1 km/h aus S

14.1 C

15.8 C

15.6 C

15.9 C

0 W/m

0.00 mm

01:00

15.7 C

998.1 hpa

90 %

8.0 km/h aus 106

12.9 km/h aus S

14.0 C

15.8 C

15.7 C

15.8 C

0 W/m

0.00 mm

01:05

15.5 C

998.1 hpa

90 %

11.3 km/h aus 105

17.7 km/h aus S

13.9 C

15.2 C

15.1 C

15.7 C

0 W/m

0.00 mm

01:10

15.4 C

998.1 hpa

91 %

12.9 km/h aus 105

19.3 km/h aus SSW

14.0 C

14.8 C

14.6 C

15.6 C

0 W/m

0.00 mm

01:15

15.6 C

998.1 hpa

91 %

9.7 km/h aus 105

19.3 km/h aus SSW

14.1 C

15.6 C

15.4 C

15.8 C

0 W/m

0.00 mm

01:20

15.7 C

998.1 hpa

91 %

9.7 km/h aus 100

16.1 km/h aus S

14.2 C

15.6 C

15.4 C

15.8 C

0 W/m

0.00 mm

01:25

15.7 C

998.1 hpa

90 %

9.7 km/h aus 103

16.1 km/h aus S

14.0 C

15.6 C

15.4 C

15.8 C

0 W/m

0.00 mm

01:30

15.7 C

998.1 hpa

90 %

9.7 km/h aus 104

17.7 km/h aus S

14.0 C

15.6 C

15.4 C

15.8 C

0 W/m

0.00 mm

01:35

15.6 C

998.1 hpa

90 %

8.0 km/h aus 108

16.1 km/h aus SSW

14.0 C

15.8 C

15.6 C

15.8 C

0 W/m

0.00 mm

01:40

15.6 C

998.1 hpa

90 %

8.0 km/h aus 109

17.7 km/h aus S

13.9 C

15.7 C

15.6 C

15.7 C

0 W/m

0.00 mm

01:45

15.5 C

998.1 hpa

90 %

11.3 km/h aus 104

20.9 km/h aus S

13.9 C

15.2 C

15.1 C

15.7 C

0 W/m

0.00 mm

01:50

15.4 C

998.1 hpa

90 %

12.9 km/h aus 103

20.9 km/h aus S

13.8 C

14.8 C

14.6 C

15.6 C

0 W/m

0.00 mm

01:55

15.3 C

998.1 hpa

90 %

9.7 km/h aus 105

19.3 km/h aus S

13.7 C

15.2 C

15.1 C

15.5 C

0 W/m

0.00 mm

02:00

15.4 C

998.1 hpa

91 %

9.7 km/h aus 107

17.7 km/h aus SSW

14.0 C

15.4 C

15.2 C

15.6 C

0 W/m

0.00 mm

02:05

15.6 C

998.1 hpa

91 %

4.8 km/h aus 103

11.3 km/h aus SSW

14.1 C

15.7 C

15.6 C

15.7 C

0 W/m

0.00 mm

02:10

15.7 C

998.1 hpa

90 %

6.4 km/h aus 107

11.3 km/h aus SSW

14.0 C

15.8 C

15.7 C

15.8 C

0 W/m

0.00 mm

02:15

15.7 C

998.0 hpa

90 %

6.4 km/h aus 104

16.1 km/h aus S

14.1 C

15.9 C

15.7 C

15.9 C

0 W/m

0.00 mm

02:20

15.8 C

998.0 hpa

90 %

9.7 km/h aus 105

17.7 km/h aus SW

14.1 C

15.8 C

15.6 C

15.9 C

0 W/m

0.00 mm

02:25

15.7 C

998.0 hpa

89 %

8.0 km/h aus 107

19.3 km/h aus SW

13.9 C

15.9 C

15.7 C

15.9 C

0 W/m

0.00 mm

02:30

15.7 C

997.8 hpa

89 %

6.4 km/h aus 107

17.7 km/h aus S

13.9 C

15.8 C

15.7 C

15.8 C

0 W/m

0.00 mm

02:35

15.6 C

997.8 hpa

89 %

8.0 km/h aus 100

14.5 km/h aus SW

13.7 C

15.7 C

15.6 C

15.7 C

0 W/m

0.00 mm

02:40

15.4 C

997.8 hpa

89 %

8.0 km/h aus 104

20.9 km/h aus SW

13.6 C

15.6 C

15.4 C

15.6 C

0 W/m

0.00 mm

02:45

15.3 C

997.9 hpa

89 %

8.0 km/h aus 106

16.1 km/h aus SSW

13.5 C

15.4 C

15.3 C

15.4 C

0 W/m

0.00 mm

02:50

15.2 C

997.9 hpa

89 %

8.0 km/h aus 105

11.3 km/h aus SSW

13.4 C

15.3 C

15.2 C

15.3 C

0 W/m

0.00 mm

02:55

15.1 C

997.9 hpa

89 %

8.0 km/h aus 106

16.1 km/h aus SSW

13.3 C

15.1 C

15.0 C

15.2 C

0 W/m

0.00 mm

03:00

15.0 C

997.6 hpa

90 %

8.0 km/h aus 96

19.3 km/h aus SSW

13.4 C

15.0 C

14.9 C

15.1 C

0 W/m

0.00 mm

03:05

15.0 C

997.6 hpa

90 %

8.0 km/h aus 108

12.9 km/h aus SSW

13.4 C

15.0 C

14.9 C

15.1 C

0 W/m

0.00 mm

03:10

15.0 C

997.6 hpa

90 %

4.8 km/h aus 106

8.0 km/h aus SSW

13.4 C

15.1 C

15.0 C

15.1 C

0 W/m

0.00 mm

03:15

15.0 C

997.4 hpa

90 %

3.2 km/h aus 101

14.5 km/h aus SSW

13.4 C

15.1 C

15.0 C

15.1 C

0 W/m

0.00 mm

03:20

14.9 C

997.4 hpa

90 %

3.2 km/h aus 106

8.0 km/h aus SSW

13.3 C

15.1 C

14.9 C

15.1 C

0 W/m

0.00 mm

03:25

14.7 C

997.4 hpa

90 %

1.6 km/h aus 100

8.0 km/h aus SSW

13.1 C

14.8 C

14.7 C

14.8 C

0 W/m

0.00 mm

03:30

14.6 C

997.2 hpa

90 %

1.6 km/h aus 98

4.8 km/h aus SSW

13.0 C

14.7 C

14.6 C

14.7 C

0 W/m

0.00 mm

03:35

14.4 C

997.2 hpa

91 %

3.2 km/h aus 102

6.4 km/h aus SSW

12.9 C

14.4 C

14.4 C

14.4 C

0 W/m

0.00 mm

03:40

14.2 C

997.2 hpa

91 %

4.8 km/h aus 100

8.0 km/h aus SSW

12.8 C

14.3 C

14.2 C

14.3 C

0 W/m

0.00 mm

03:45

14.3 C

997.1 hpa

91 %

3.2 km/h aus 101

6.4 km/h aus SSW

12.8 C

14.3 C

14.3 C

14.3 C

0 W/m

0.00 mm

03:50

14.3 C

997.1 hpa

91 %

1.6 km/h aus 101

4.8 km/h aus SSW

12.8 C

14.3 C

14.3 C

14.3 C

0 W/m

0.00 mm

03:55

14.2 C

997.1 hpa

92 %

4.8 km/h aus 96

8.0 km/h aus SSW

12.9 C

14.3 C

14.2 C

14.3 C

0 W/m

0.00 mm

04:00

14.2 C

997.4 hpa

92 %

6.4 km/h aus 98

8.0 km/h aus SSW

12.9 C

14.3 C

14.2 C

14.3 C

0 W/m

0.00 mm

04:05

14.2 C

997.4 hpa

92 %

1.6 km/h aus 109

9.7 km/h aus SSW

12.9 C

14.3 C

14.2 C

14.3 C

0 W/m

0.00 mm

04:10

14.2 C

997.4 hpa

92 %

1.6 km/h aus 99

3.2 km/h aus SSW

12.9 C

14.3 C

14.2 C

14.3 C

0 W/m

0.00 mm

04:15

14.1 C

997.1 hpa

92 %

4.8 km/h aus 105

8.0 km/h aus SSW

12.8 C

14.2 C

14.1 C

14.2 C

0 W/m

0.00 mm

04:20

14.1 C

997.1 hpa

92 %

4.8 km/h aus 107

8.0 km/h aus SSW

12.8 C

14.2 C

14.1 C

14.2 C

0 W/m

0.00 mm

04:25

14.2 C

997.1 hpa

92 %

4.8 km/h aus 109

8.0 km/h aus SSW

12.9 C

14.3 C

14.2 C

14.3 C

0 W/m

0.00 mm

04:30

14.3 C

997.1 hpa

93 %

6.4 km/h aus 108

9.7 km/h aus SSW

13.2 C

14.4 C

14.3 C

14.4 C

0 W/m

0.00 mm

04:35

14.3 C

997.1 hpa

93 %

4.8 km/h aus 104

8.0 km/h aus SSW

13.2 C

14.4 C

14.3 C

14.4 C

0 W/m

0.00 mm

04:40

14.3 C

997.1 hpa

93 %

3.2 km/h aus 106

6.4 km/h aus SSW

13.2 C

14.4 C

14.3 C

14.4 C

0 W/m

0.00 mm

04:45

14.3 C

997.1 hpa

93 %

4.8 km/h aus 106

9.7 km/h aus SSW

13.2 C

14.4 C

14.3 C

14.4 C

0 W/m

0.00 mm

04:50

14.3 C

997.1 hpa

93 %

4.8 km/h aus 105

9.7 km/h aus SSW

13.2 C

14.4 C

14.3 C

14.4 C

0 W/m

0.00 mm

04:55

14.4 C

997.1 hpa

93 %

3.2 km/h aus 107

6.4 km/h aus SSW

13.3 C

14.5 C

14.4 C

14.5 C

0 W/m

0.00 mm

05:00

14.4 C

997.1 hpa

93 %

3.2 km/h aus 110

6.4 km/h aus SSW

13.3 C

14.5 C

14.4 C

14.5 C

0 W/m

0.00 mm

05:05

14.4 C

997.1 hpa

93 %

3.2 km/h aus 108

9.7 km/h aus SSW

13.3 C

14.5 C

14.4 C

14.5 C

0 W/m

0.00 mm

05:10

14.4 C

997.1 hpa

93 %

6.4 km/h aus 112

12.9 km/h aus SSW

13.3 C

14.6 C

14.4 C

14.6 C

0 W/m

0.25 mm

05:15

14.4 C

997.1 hpa

92 %

4.8 km/h aus 107

9.7 km/h aus SSW

13.2 C

14.6 C

14.4 C

14.6 C

0 W/m

0.00 mm

05:20

14.4 C

997.1 hpa

93 %

4.8 km/h aus 105

11.3 km/h aus SSW

13.3 C

14.6 C

14.4 C

14.6 C

0 W/m

0.00 mm

05:25

14.4 C

997.1 hpa

93 %

4.8 km/h aus 109

8.0 km/h aus SSW

13.3 C

14.6 C

14.4 C

14.6 C

0 W/m

0.00 mm

05:30

14.4 C

997.1 hpa

93 %

4.8 km/h aus 88

9.7 km/h aus SSW

13.3 C

14.5 C

14.4 C

14.5 C

0 W/m

0.00 mm

05:35

14.4 C

997.1 hpa

92 %

4.8 km/h aus 94

8.0 km/h aus SSW

13.1 C

14.5 C

14.4 C

14.5 C

0 W/m

0.00 mm

05:40

14.4 C

997.1 hpa

92 %

3.2 km/h aus 90

6.4 km/h aus SSW

13.1 C

14.5 C

14.4 C

14.5 C

0 W/m

0.00 mm

05:45

14.4 C

996.7 hpa

92 %

4.8 km/h aus 95

8.0 km/h aus SSW

13.1 C

14.5 C

14.4 C

14.5 C

0 W/m

0.00 mm

05:50

14.3 C

996.7 hpa

92 %

3.2 km/h aus 91

4.8 km/h aus SSW

13.1 C

14.4 C

14.3 C

14.4 C

0 W/m

0.00 mm

05:55

14.3 C

996.7 hpa

92 %

4.8 km/h aus 93

8.0 km/h aus SSW

13.1 C

14.4 C

14.3 C

14.4 C

0 W/m

0.00 mm

06:00

14.3 C

996.9 hpa

92 %

6.4 km/h aus 106

9.7 km/h aus SSW

13.1 C

14.4 C

14.3 C

14.4 C

0 W/m

0.00 mm

06:05

14.3 C

996.9 hpa

92 %

6.4 km/h aus 103

9.7 km/h aus SSW

13.1 C

14.4 C

14.3 C

14.4 C

0 W/m

0.00 mm

06:10

14.3 C

996.9 hpa

92 %

3.2 km/h aus 106

6.4 km/h aus SSW

13.0 C

14.4 C

14.3 C

14.4 C

0 W/m

0.00 mm

06:15

14.3 C

996.7 hpa

92 %

6.4 km/h aus 104

9.7 km/h aus SSW

13.0 C

14.4 C

14.3 C

14.4 C

0 W/m

0.00 mm

06:20

14.3 C

996.7 hpa

92 %

6.4 km/h aus 103

9.7 km/h aus SSW

13.0 C

14.4 C

14.3 C

14.4 C

0 W/m

0.00 mm

06:25

14.3 C

996.7 hpa

92 %

6.4 km/h aus 103

9.7 km/h aus SSW

13.0 C

14.4 C

14.3 C

14.4 C

0 W/m

0.00 mm

06:30

14.3 C

996.8 hpa

92 %

6.4 km/h aus 107

8.0 km/h aus SSW

13.0 C

14.4 C

14.3 C

14.4 C

0 W/m

0.00 mm

06:35

14.3 C

996.8 hpa

92 %

4.8 km/h aus 105

9.7 km/h aus SSW

13.0 C

14.4 C

14.3 C

14.4 C

0 W/m

0.00 mm

06:40

14.2 C

996.8 hpa

92 %

4.8 km/h aus 112

9.7 km/h aus SSW

12.9 C

14.3 C

14.2 C

14.3 C

0 W/m

0.00 mm

06:45

14.2 C

996.9 hpa

92 %

4.8 km/h aus 106

9.7 km/h aus SSW

12.9 C

14.3 C

14.2 C

14.3 C

0 W/m

0.00 mm

06:50

14.2 C

996.9 hpa

92 %

4.8 km/h aus 102

6.4 km/h aus SSW

12.9 C

14.3 C

14.2 C

14.3 C

0 W/m

0.00 mm

06:55

14.2 C

996.9 hpa

92 %

4.8 km/h aus 96

9.7 km/h aus SSW

12.9 C

14.3 C

14.2 C

14.3 C

0 W/m

0.00 mm

07:00

14.2 C

996.9 hpa

92 %

4.8 km/h aus 104

9.7 km/h aus SSW

12.9 C

14.3 C

14.2 C

14.3 C

0 W/m

0.00 mm

07:05

14.2 C

996.9 hpa

92 %

4.8 km/h aus 106

11.3 km/h aus SSW

12.9 C

14.3 C

14.2 C

14.3 C

0 W/m

0.00 mm

07:10

14.2 C

996.9 hpa

92 %

9.7 km/h aus 109

17.7 km/h aus SW

12.9 C

13.8 C

13.7 C

14.3 C

0 W/m

0.25 mm

07:15

14.2 C

997.1 hpa

92 %

8.0 km/h aus 100

16.1 km/h aus SW

12.9 C

14.0 C

13.9 C

14.3 C

0 W/m

0.00 mm

07:20

14.2 C

997.1 hpa

92 %

8.0 km/h aus 101

17.7 km/h aus SSW

12.9 C

14.0 C

13.9 C

14.3 C

0 W/m

0.00 mm

07:25

14.2 C

997.1 hpa

92 %

8.0 km/h aus 105

16.1 km/h aus SW

12.9 C

14.0 C

13.9 C

14.3 C

0 W/m

0.00 mm

07:30

14.2 C

997.2 hpa

92 %

8.0 km/h aus 108

17.7 km/h aus SSW

12.9 C

14.0 C

13.9 C

14.3 C

0 W/m

0.00 mm

07:35

14.2 C

997.2 hpa

92 %

9.7 km/h aus 103

16.1 km/h aus SSW

12.9 C

13.8 C

13.7 C

14.3 C

0 W/m

0.25 mm

07:40

14.1 C

997.2 hpa

92 %

8.0 km/h aus 107

16.1 km/h aus SW

12.8 C

13.9 C

13.8 C

14.2 C

0 W/m

0.25 mm

07:45

14.1 C

997.2 hpa

92 %

6.4 km/h aus 96

14.5 km/h aus SSW

12.8 C

14.2 C

14.1 C

14.2 C

0 W/m

0.00 mm

07:50

14.1 C

997.2 hpa

92 %

6.4 km/h aus 97

11.3 km/h aus SSW

12.8 C

14.2 C

14.1 C

14.2 C

0 W/m

0.00 mm

07:55

14.1 C

997.2 hpa

92 %

4.8 km/h aus 111

8.0 km/h aus SSW

12.8 C

14.2 C

14.1 C

14.2 C

0 W/m

0.00 mm

08:00

14.1 C

997.3 hpa

92 %

6.4 km/h aus 109

11.3 km/h aus SSW

12.8 C

14.2 C

14.1 C

14.2 C

0 W/m

0.00 mm

08:05

14.1 C

997.3 hpa

92 %

8.0 km/h aus 106

12.9 km/h aus SSW

12.8 C

13.9 C

13.8 C

14.2 C

0 W/m

0.00 mm

08:10

14.1 C

997.3 hpa

92 %

6.4 km/h aus 108

14.5 km/h aus SSW

12.8 C

14.2 C

14.1 C

14.2 C

0 W/m

0.00 mm

08:15

14.2 C

997.5 hpa

93 %

6.4 km/h aus 108

12.9 km/h aus SSW

13.1 C

14.3 C

14.2 C

14.3 C

0 W/m

0.00 mm

08:20

14.2 C

997.5 hpa

93 %

8.0 km/h aus 103

16.1 km/h aus SSW

13.1 C

14.1 C

13.9 C

14.3 C

0 W/m

0.00 mm

08:25

14.4 C

997.5 hpa

93 %

8.0 km/h aus 111

16.1 km/h aus SSW

13.3 C

14.3 C

14.2 C

14.5 C

0 W/m

0.00 mm

08:30

14.5 C

997.5 hpa

93 %

11.3 km/h aus 103

20.9 km/h aus SSW

13.4 C

13.9 C

13.8 C

14.6 C

0 W/m

0.00 mm

08:35

14.6 C

997.5 hpa

93 %

8.0 km/h aus 104

17.7 km/h aus SSW

13.5 C

14.6 C

14.4 C

14.7 C

0 W/m

0.00 mm

08:40

14.6 C

997.5 hpa

92 %

8.0 km/h aus 101

16.1 km/h aus SSW

13.3 C

14.4 C

14.3 C

14.7 C

0 W/m

0.00 mm

08:45

14.6 C

997.5 hpa

92 %

6.4 km/h aus 107

14.5 km/h aus SSW

13.3 C

14.7 C

14.6 C

14.7 C

0 W/m

0.00 mm

08:50

14.5 C

997.5 hpa

92 %

9.7 km/h aus 106

20.9 km/h aus SSW

13.2 C

14.2 C

14.1 C

14.6 C

0 W/m

0.00 mm

08:55

14.5 C

997.5 hpa

92 %

9.7 km/h aus 112

19.3 km/h aus SSW

13.2 C

14.2 C

14.1 C

14.6 C

0 W/m

0.00 mm

09:00

14.5 C

997.6 hpa

92 %

11.3 km/h aus 99

19.3 km/h aus SSW

13.2 C

13.9 C

13.8 C

14.6 C

0 W/m

0.00 mm

09:05

14.6 C

997.6 hpa

92 %

8.0 km/h aus 103

14.5 km/h aus SSW

13.3 C

14.4 C

14.3 C

14.7 C

0 W/m

0.00 mm

09:10

14.6 C

997.6 hpa

92 %

6.4 km/h aus 103

14.5 km/h aus SSW

13.3 C

14.7 C

14.6 C

14.7 C

0 W/m

0.00 mm

09:15

14.6 C

997.7 hpa

92 %

11.3 km/h aus 109

22.5 km/h aus SSW

13.3 C

14.1 C

14.0 C

14.7 C

0 W/m

0.00 mm

09:20

14.6 C

997.7 hpa

92 %

9.7 km/h aus 110

17.7 km/h aus SSW

13.3 C

14.3 C

14.2 C

14.7 C

0 W/m

0.00 mm

09:25

14.7 C

997.7 hpa

91 %

12.9 km/h aus 108

25.7 km/h aus SSW

13.2 C

13.8 C

13.7 C

14.8 C

0 W/m

0.00 mm

09:30

14.8 C

998.0 hpa

91 %

11.3 km/h aus 111

24.1 km/h aus S

13.3 C

14.3 C

14.2 C

14.9 C

0 W/m

0.00 mm

09:35

15.0 C

998.0 hpa

91 %

9.7 km/h aus 109

29.0 km/h aus SSW

13.5 C

14.8 C

14.7 C

15.1 C

0 W/m

0.00 mm

09:40

14.8 C

998.0 hpa

90 %

16.1 km/h aus 104

32.2 km/h aus SSW

13.2 C

13.1 C

12.9 C

14.9 C

0 W/m

0.00 mm

09:45

14.7 C

998.2 hpa

90 %

14.5 km/h aus 108

27.4 km/h aus SW

13.1 C

13.3 C

13.3 C

14.8 C

0 W/m

0.00 mm

09:50

14.6 C

998.2 hpa

89 %

19.3 km/h aus 105

29.0 km/h aus SW

12.8 C

12.2 C

12.1 C

14.7 C

0 W/m

0.00 mm

09:55

14.6 C

998.2 hpa

89 %

11.3 km/h aus 109

22.5 km/h aus WSW

12.8 C

14.1 C

14.0 C

14.7 C

0 W/m

0.00 mm

10:00

14.7 C

998.3 hpa

89 %

8.0 km/h aus 108

17.7 km/h aus SSW

12.9 C

14.6 C

14.5 C

14.7 C

0 W/m

0.00 mm

10:05

14.6 C

998.3 hpa

89 %

6.4 km/h aus 108

16.1 km/h aus SW

12.8 C

14.7 C

14.6 C

14.7 C

0 W/m

0.00 mm

10:10

14.7 C

998.3 hpa

89 %

8.0 km/h aus 106

22.5 km/h aus SSW

12.9 C

14.6 C

14.5 C

14.7 C

0 W/m

0.00 mm

10:15

14.6 C

998.6 hpa

89 %

11.3 km/h aus 105

24.1 km/h aus SW

12.8 C

13.9 C

13.9 C

14.6 C

0 W/m

0.00 mm

10:20

14.6 C

998.6 hpa

89 %

11.3 km/h aus 104

29.0 km/h aus SW

12.8 C

14.1 C

14.0 C

14.7 C

0 W/m

0.00 mm

10:25

14.7 C

998.6 hpa

89 %

11.3 km/h aus 107

25.7 km/h aus SSW

12.9 C

14.1 C

14.1 C

14.7 C

0 W/m

0.00 mm

10:30

14.8 C

998.5 hpa

89 %

9.7 km/h aus 105

24.1 km/h aus SSW

13.0 C

14.5 C

14.4 C

14.9 C

0 W/m

0.00 mm

10:35

15.0 C

998.5 hpa

88 %

14.5 km/h aus 109

27.4 km/h aus SW

13.0 C

13.7 C

13.6 C

15.1 C

0 W/m

0.00 mm

10:40

15.2 C

998.5 hpa

89 %

9.7 km/h aus 104

20.9 km/h aus SW

13.4 C

15.1 C

14.9 C

15.3 C

0 W/m

0.00 mm

10:45

15.3 C

998.6 hpa

87 %

16.1 km/h aus 102

29.0 km/h aus SSW

13.2 C

13.7 C

13.6 C

15.4 C

0 W/m

0.00 mm

10:50

15.5 C

998.6 hpa

86 %

17.7 km/h aus 98

30.6 km/h aus SSW

13.2 C

13.5 C

13.4 C

15.6 C

0 W/m

0.00 mm

10:55

15.8 C

998.6 hpa

85 %

16.1 km/h aus 103

32.2 km/h aus SW

13.3 C

14.2 C

14.1 C

15.8 C

0 W/m

0.00 mm

11:00

16.0 C

998.6 hpa

84 %

19.3 km/h aus 109

29.0 km/h aus SSW

13.3 C

13.8 C

13.7 C

16.1 C

0 W/m

0.00 mm

11:05

16.1 C

998.6 hpa

82 %

17.7 km/h aus 108

30.6 km/h aus WSW

13.0 C

14.2 C

14.2 C

16.2 C

0 W/m

0.00 mm

11:10

16.2 C

998.6 hpa

81 %

19.3 km/h aus 109

35.4 km/h aus WSW

12.9 C

13.9 C

13.9 C

16.2 C

0 W/m

0.25 mm

11:15

16.2 C

998.7 hpa

82 %

14.5 km/h aus 100

29.0 km/h aus SW

13.1 C

15.1 C

15.0 C

16.2 C

0 W/m

0.00 mm

11:20

16.2 C

998.7 hpa

80 %

19.3 km/h aus 110

30.6 km/h aus SSW

12.7 C

13.9 C

13.9 C

16.2 C

0 W/m

0.00 mm

11:25

16.1 C

998.7 hpa

79 %

22.5 km/h aus 107

33.8 km/h aus SSW

12.5 C

13.3 C

13.3 C

16.1 C

0 W/m

0.00 mm

11:30

16.5 C

998.7 hpa

79 %

19.3 km/h aus 108

35.4 km/h aus SW

12.8 C

14.3 C

14.3 C

16.6 C

0 W/m

0.00 mm

11:35

16.8 C

998.7 hpa

78 %

22.5 km/h aus 106

37.0 km/h aus SSW

12.9 C

14.2 C

14.1 C

16.8 C

0 W/m

0.00 mm

11:40

16.9 C

998.7 hpa

78 %

17.7 km/h aus 105

32.2 km/h aus SW

13.1 C

15.2 C

15.1 C

17.0 C

0 W/m

0.00 mm

11:45

17.0 C

998.9 hpa

75 %

24.1 km/h aus 100

43.5 km/h aus SSW

12.5 C

14.1 C

14.2 C

16.9 C

0 W/m

0.00 mm

11:50

16.9 C

998.9 hpa

75 %

24.1 km/h aus 104

43.5 km/h aus SSW

12.4 C

13.9 C

14.1 C

16.8 C

0 W/m

0.00 mm

11:55

16.8 C

998.9 hpa

74 %

22.5 km/h aus 110

38.6 km/h aus SSW

12.2 C

14.1 C

14.2 C

16.7 C

0 W/m

0.00 mm

12:00

17.1 C

998.9 hpa

75 %

20.9 km/h aus 104

37.0 km/h aus SW

12.6 C

14.7 C

14.7 C

17.1 C

0 W/m

0.00 mm

12:05

17.7 C

998.9 hpa

74 %

17.7 km/h aus 106

37.0 km/h aus WSW

13.0 C

15.9 C

15.9 C

17.7 C

0 W/m

0.00 mm

12:10

17.6 C

998.9 hpa

75 %

17.7 km/h aus 110

37.0 km/h aus SW

13.1 C

15.9 C

15.9 C

17.6 C

0 W/m

0.00 mm

12:15

17.7 C

999.1 hpa

75 %

16.1 km/h aus 104

32.2 km/h aus SSW

13.2 C

16.4 C

16.3 C

17.7 C

0 W/m

0.00 mm

12:20

17.6 C

999.1 hpa

73 %

19.3 km/h aus 106

37.0 km/h aus SSW

12.7 C

15.4 C

15.5 C

17.5 C

0 W/m

0.00 mm

12:25

17.3 C

999.1 hpa

73 %

17.7 km/h aus 109

30.6 km/h aus S

12.4 C

15.4 C

15.5 C

17.2 C

0 W/m

0.00 mm

12:30

17.1 C

999.3 hpa

74 %

17.7 km/h aus 109

40.2 km/h aus SSE

12.4 C

15.2 C

15.3 C

17.0 C

0 W/m

0.00 mm

12:35

16.8 C

999.3 hpa

74 %

24.1 km/h aus 108

41.8 km/h aus SSW

12.1 C

13.8 C

13.9 C

16.7 C

0 W/m

0.00 mm

12:40

16.6 C

999.3 hpa

76 %

19.3 km/h aus 111

33.8 km/h aus SW

12.4 C

14.3 C

14.4 C

16.6 C

0 W/m

0.00 mm

12:45

16.4 C

999.6 hpa

78 %

16.1 km/h aus 107

29.0 km/h aus SW

12.6 C

14.9 C

14.9 C

16.4 C

0 W/m

0.00 mm

12:50

16.3 C

999.6 hpa

78 %

12.9 km/h aus 104

29.0 km/h aus SSW

12.5 C

15.6 C

15.7 C

16.3 C

0 W/m

0.00 mm

12:55

16.4 C

999.6 hpa

79 %

6.4 km/h aus 104

19.3 km/h aus SW

12.8 C

16.4 C

16.4 C

16.4 C

0 W/m

0.00 mm

13:00

16.4 C

999.7 hpa

79 %

11.3 km/h aus 109

22.5 km/h aus SW

12.7 C

16.2 C

16.2 C

16.4 C

0 W/m

0.00 mm

13:05

16.4 C

999.7 hpa

79 %

11.3 km/h aus 109

22.5 km/h aus SW

12.7 C

16.2 C

16.2 C

16.4 C

0 W/m

0.00 mm

13:10

16.4 C

999.7 hpa

79 %

9.7 km/h aus 106

20.9 km/h aus WSW

12.7 C

16.3 C

16.3 C

16.4 C

0 W/m

0.00 mm

13:15

16.3 C

1000.1 hpa

80 %

8.0 km/h aus 103

20.9 km/h aus SW

12.9 C

16.4 C

16.3 C

16.4 C

0 W/m

0.00 mm

13:20

16.1 C

1000.1 hpa

82 %

11.3 km/h aus 106

22.5 km/h aus W

13.0 C

15.8 C

15.8 C

16.2 C

0 W/m

0.00 mm

13:25

15.7 C

1000.1 hpa

84 %

11.3 km/h aus 100

27.4 km/h aus SW

13.0 C

15.4 C

15.3 C

15.8 C

0 W/m

0.25 mm

13:30

15.3 C

1000.3 hpa

86 %

14.5 km/h aus 105

24.1 km/h aus WSW

13.0 C

14.1 C

14.0 C

15.4 C

0 W/m

0.00 mm

13:35

15.0 C

1000.3 hpa

86 %

14.5 km/h aus 100

27.4 km/h aus SW

12.7 C

13.6 C

13.6 C

15.0 C

0 W/m

0.25 mm

13:40

15.0 C

1000.3 hpa

87 %

9.7 km/h aus 106

19.3 km/h aus SW

12.9 C

14.7 C

14.7 C

15.1 C

0 W/m

0.00 mm

13:45

15.1 C

1000.5 hpa

88 %

9.7 km/h aus 102

17.7 km/h aus SW

13.1 C

14.8 C

14.8 C

15.2 C

0 W/m

0.00 mm

13:50

15.3 C

1000.5 hpa

87 %

11.3 km/h aus 103

22.5 km/h aus SSW

13.1 C

14.8 C

14.8 C

15.3 C

0 W/m

0.00 mm

13:55

15.4 C

1000.5 hpa

87 %

12.9 km/h aus 105

24.1 km/h aus SW

13.2 C

14.6 C

14.5 C

15.5 C

0 W/m

0.00 mm

14:00

15.4 C

1000.7 hpa

86 %

12.9 km/h aus 111

24.1 km/h aus SSW

13.1 C

14.6 C

14.5 C

15.4 C

0 W/m

0.00 mm

14:05

15.4 C

1000.7 hpa

86 %

14.5 km/h aus 96

24.1 km/h aus SSW

13.1 C

14.1 C

14.1 C

15.4 C

0 W/m

0.00 mm

14:10

15.4 C

1000.7 hpa

86 %

11.3 km/h aus 102

24.1 km/h aus SSW

13.1 C

14.9 C

14.9 C

15.4 C

0 W/m

0.00 mm

14:15

15.4 C

1000.8 hpa

87 %

8.0 km/h aus 109

19.3 km/h aus W

13.3 C

15.6 C

15.4 C

15.6 C

0 W/m

0.00 mm

14:20

15.4 C

1000.8 hpa

87 %

11.3 km/h aus 103

20.9 km/h aus WSW

13.2 C

15.0 C

14.9 C

15.5 C

0 W/m

0.00 mm

14:25

15.3 C

1000.8 hpa

87 %

9.7 km/h aus 104

22.5 km/h aus W

13.2 C

15.1 C

15.1 C

15.4 C

0 W/m

0.25 mm

14:30

14.9 C

1001.1 hpa

86 %

16.1 km/h aus 104

29.0 km/h aus W

12.6 C

13.1 C

13.1 C

14.9 C

0 W/m

0.76 mm

14:35

14.6 C

1001.1 hpa

88 %

9.7 km/h aus 100

19.3 km/h aus WSW

12.6 C

14.1 C

14.1 C

14.6 C

0 W/m

0.00 mm

14:40

14.5 C

1001.1 hpa

89 %

9.7 km/h aus 109

22.5 km/h aus WSW

12.7 C

14.1 C

14.1 C

14.6 C

0 W/m

0.25 mm

14:45

14.8 C

1000.9 hpa

90 %

8.0 km/h aus 104

16.1 km/h aus WSW

13.2 C

14.7 C

14.6 C

14.9 C

0 W/m

0.00 mm

14:50

15.2 C

1000.9 hpa

91 %

6.4 km/h aus 112

16.1 km/h aus WSW

13.7 C

15.3 C

15.2 C

15.3 C

0 W/m

0.00 mm

14:55

15.6 C

1000.9 hpa

91 %

4.8 km/h aus 106

11.3 km/h aus WSW

14.1 C

15.8 C

15.6 C

15.8 C

0 W/m

0.00 mm

15:00

16.1 C

1000.8 hpa

90 %

6.4 km/h aus 111

12.9 km/h aus W

14.5 C

16.3 C

16.1 C

16.3 C

0 W/m

0.00 mm

15:05

16.6 C

1000.8 hpa

90 %

6.4 km/h aus 111

11.3 km/h aus WSW

14.9 C

16.8 C

16.6 C

16.8 C

0 W/m

0.00 mm

15:10

16.6 C

1000.8 hpa

87 %

6.4 km/h aus 111

16.1 km/h aus W

14.4 C

16.8 C

16.6 C

16.8 C

0 W/m

0.00 mm

15:15

16.7 C

1000.9 hpa

86 %

8.0 km/h aus 107

19.3 km/h aus SW

14.4 C

16.9 C

16.7 C

16.9 C

0 W/m

0.00 mm

15:20

16.6 C

1000.9 hpa

78 %

17.7 km/h aus 105

35.4 km/h aus W

12.7 C

14.7 C

14.7 C

16.6 C

0 W/m

0.00 mm

15:25

16.7 C

1000.9 hpa

77 %

12.9 km/h aus 109

24.1 km/h aus WSW

12.6 C

16.1 C

16.1 C

16.7 C

0 W/m

0.00 mm

15:30

16.9 C

1001.0 hpa

74 %

17.7 km/h aus 109

29.0 km/h aus SSW

12.3 C

15.0 C

15.1 C

16.8 C

0 W/m

0.00 mm

15:35

17.1 C

1001.0 hpa

75 %

11.3 km/h aus 112

22.5 km/h aus WSW

12.6 C

16.9 C

16.9 C

17.0 C

0 W/m

0.00 mm

15:40

17.2 C

1001.0 hpa

73 %

12.9 km/h aus 110

22.5 km/h aus WSW

12.3 C

16.6 C

16.7 C

17.1 C

0 W/m

0.00 mm

15:45

17.2 C

1001.0 hpa

73 %

16.1 km/h aus 108

29.0 km/h aus SW

12.3 C

15.7 C

15.8 C

17.1 C

0 W/m

0.00 mm

15:50

17.1 C

1001.0 hpa

72 %

14.5 km/h aus 107

30.6 km/h aus WSW

12.0 C

15.9 C

16.1 C

16.9 C

0 W/m

0.00 mm

15:55

16.8 C

1001.0 hpa

72 %

16.1 km/h aus 109

33.8 km/h aus SW

11.8 C

15.2 C

15.4 C

16.7 C

0 W/m

0.00 mm

16:00

16.6 C

1001.3 hpa

73 %

16.1 km/h aus 109

30.6 km/h aus WSW

11.7 C

14.9 C

15.1 C

16.4 C

0 W/m

0.00 mm

16:05

16.3 C

1001.3 hpa

75 %

16.1 km/h aus 109

29.0 km/h aus SW

11.8 C

14.6 C

14.7 C

16.1 C

0 W/m

0.00 mm

16:10

16.2 C

1001.3 hpa

76 %

16.1 km/h aus 112

25.7 km/h aus S

11.9 C

14.4 C

14.6 C

16.1 C

0 W/m

0.00 mm

16:15

15.8 C

1001.4 hpa

77 %

19.3 km/h aus 105

33.8 km/h aus SSW

11.8 C

13.4 C

13.6 C

15.7 C

0 W/m

0.00 mm

16:20

15.8 C

1001.4 hpa

79 %

12.9 km/h aus 105

24.1 km/h aus SSW

12.2 C

15.0 C

15.1 C

15.8 C

0 W/m

0.00 mm

16:25

15.9 C

1001.4 hpa

77 %

17.7 km/h aus 108

29.0 km/h aus SW

11.9 C

13.8 C

13.9 C

15.8 C

0 W/m

0.00 mm

16:30

16.1 C

1001.6 hpa

76 %

16.1 km/h aus 106

30.6 km/h aus SSW

11.9 C

14.4 C

14.5 C

16.0 C

0 W/m

0.00 mm

16:35

16.1 C

1001.6 hpa

76 %

19.3 km/h aus 107

30.6 km/h aus SSW

11.9 C

13.7 C

13.8 C

16.0 C

0 W/m

0.00 mm

16:40

16.1 C

1001.6 hpa

78 %

16.1 km/h aus 103

30.6 km/h aus SW

12.3 C

14.4 C

14.5 C

16.1 C

0 W/m

0.00 mm

16:45

16.5 C

1001.6 hpa

78 %

14.5 km/h aus 107

29.0 km/h aus SSW

12.6 C

15.4 C

15.4 C

16.5 C

0 W/m

0.00 mm

16:50

16.9 C

1001.6 hpa

78 %

14.5 km/h aus 105

29.0 km/h aus SSW

13.0 C

15.9 C

15.8 C

16.9 C

0 W/m

0.00 mm

16:55

17.2 C

1001.6 hpa

77 %

11.3 km/h aus 109

25.7 km/h aus SSW

13.1 C

17.2 C

17.1 C

17.2 C

0 W/m

0.00 mm

17:00

17.1 C

1001.6 hpa

77 %

17.7 km/h aus 108

27.4 km/h aus SSW

13.0 C

15.3 C

15.3 C

17.1 C

0 W/m

0.00 mm

17:05

17.3 C

1001.6 hpa

77 %

14.5 km/h aus 110

24.1 km/h aus S

13.2 C

16.3 C

16.3 C

17.3 C

0 W/m

0.00 mm

17:10

17.3 C

1001.6 hpa

76 %

16.1 km/h aus 107

32.2 km/h aus SW

13.1 C

15.9 C

15.9 C

17.3 C

0 W/m

0.00 mm

17:15

17.6 C

1001.8 hpa

76 %

16.1 km/h aus 111

33.8 km/h aus SW

13.3 C

16.3 C

16.3 C

17.7 C

0 W/m

0.00 mm

17:20

18.1 C

1001.8 hpa

76 %

14.5 km/h aus 109

22.5 km/h aus S

13.8 C

17.4 C

17.2 C

18.2 C

0 W/m

0.00 mm

17:25

18.3 C

1001.8 hpa

73 %

14.5 km/h aus 113

29.0 km/h aus SW

13.4 C

17.6 C

17.5 C

18.4 C

0 W/m

0.00 mm

17:30

17.7 C

1001.8 hpa

74 %

16.1 km/h aus 107

29.0 km/h aus SSW

13.0 C

16.4 C

16.4 C

17.7 C

0 W/m

0.00 mm

17:35

17.3 C

1001.8 hpa

76 %

14.5 km/h aus 112

27.4 km/h aus SSW

13.0 C

16.3 C

16.3 C

17.3 C

0 W/m

0.00 mm

17:40

17.1 C

1001.8 hpa

76 %

17.7 km/h aus 111

29.0 km/h aus SSW

12.8 C

15.2 C

15.2 C

17.1 C

0 W/m

0.00 mm

17:45

17.0 C

1001.8 hpa

76 %

12.9 km/h aus 107

25.7 km/h aus SW

12.7 C

16.4 C

16.4 C

16.9 C

0 W/m

0.00 mm

17:50

16.9 C

1001.8 hpa

77 %

16.1 km/h aus 110

30.6 km/h aus SSW

12.9 C

15.5 C

15.5 C

16.9 C

0 W/m

0.00 mm

17:55

16.8 C

1001.8 hpa

77 %

12.9 km/h aus 106

22.5 km/h aus SSW

12.8 C

16.3 C

16.3 C

16.8 C

0 W/m

0.00 mm

18:00

16.9 C

1001.9 hpa

77 %

16.1 km/h aus 106

27.4 km/h aus SW

12.8 C

15.4 C

15.4 C

16.9 C

0 W/m

0.00 mm

18:05

16.9 C

1001.9 hpa

78 %

12.9 km/h aus 106

22.5 km/h aus WSW

13.1 C

16.4 C

16.4 C

17.0 C

0 W/m

0.00 mm

18:10

16.9 C

1001.9 hpa

78 %

11.3 km/h aus 105

22.5 km/h aus SW

13.1 C

16.9 C

16.8 C

17.0 C

0 W/m

0.00 mm

18:15

16.9 C

1002.0 hpa

78 %

11.3 km/h aus 111

24.1 km/h aus S

13.0 C

16.8 C

16.8 C

16.9 C

0 W/m

0.00 mm

18:20

16.8 C

1002.0 hpa

78 %

12.9 km/h aus 104

25.7 km/h aus SSW

13.0 C

16.3 C

16.3 C

16.9 C

0 W/m

0.00 mm

18:25

16.9 C

1002.0 hpa

78 %

16.1 km/h aus 106

27.4 km/h aus SSW

13.0 C

15.5 C

15.4 C

16.9 C

0 W/m

0.00 mm

18:30

16.9 C

1002.1 hpa

77 %

14.5 km/h aus 110

29.0 km/h aus SSW

12.9 C

15.9 C

15.9 C

16.9 C

0 W/m

0.00 mm

18:35

17.2 C

1002.1 hpa

77 %

11.3 km/h aus 109

20.9 km/h aus SW

13.2 C

17.2 C

17.2 C

17.3 C

0 W/m

0.00 mm

18:40

17.3 C

1002.1 hpa

77 %

9.7 km/h aus 112

20.9 km/h aus SW

13.2 C

17.3 C

17.3 C

17.3 C

0 W/m

0.00 mm

18:45

17.2 C

1002.2 hpa

77 %

11.3 km/h aus 110

20.9 km/h aus SW

13.1 C

17.2 C

17.1 C

17.2 C

0 W/m

0.00 mm

18:50

17.0 C

1002.2 hpa

81 %

12.9 km/h aus 110

19.3 km/h aus S

13.7 C

16.6 C

16.4 C

17.2 C

0 W/m

0.00 mm

18:55

16.9 C

1002.2 hpa

80 %

16.1 km/h aus 108

30.6 km/h aus SSE

13.4 C

15.6 C

15.4 C

17.0 C

0 W/m

0.00 mm

19:00

17.1 C

1002.3 hpa

80 %

11.3 km/h aus 101

24.1 km/h aus S

13.6 C

17.1 C

16.9 C

17.2 C

0 W/m

0.00 mm

19:05

17.0 C

1002.3 hpa

79 %

12.9 km/h aus 111

29.0 km/h aus SSW

13.3 C

16.6 C

16.4 C

17.1 C

0 W/m

0.00 mm

19:10

16.9 C

1002.3 hpa

79 %

12.9 km/h aus 108

25.7 km/h aus SW

13.2 C

16.4 C

16.3 C

17.0 C

0 W/m

0.00 mm

19:15

16.8 C

1002.4 hpa

79 %

16.1 km/h aus 112

27.4 km/h aus S

13.2 C

15.4 C

15.4 C

16.9 C

0 W/m

0.00 mm

19:20

16.8 C

1002.4 hpa

79 %

16.1 km/h aus 105

27.4 km/h aus SSW

13.1 C

15.3 C

15.3 C

16.8 C

0 W/m

0.00 mm

19:25

16.7 C

1002.4 hpa

78 %

16.1 km/h aus 110

27.4 km/h aus SW

12.9 C

15.2 C

15.2 C

16.7 C

0 W/m

0.00 mm

19:30

16.9 C

1002.6 hpa

78 %

16.1 km/h aus 103

32.2 km/h aus SSW

13.0 C

15.5 C

15.4 C

16.9 C

0 W/m

0.00 mm

19:35

16.8 C

1002.6 hpa

79 %

14.5 km/h aus 107

25.7 km/h aus SW

13.2 C

15.8 C

15.8 C

16.9 C

0 W/m

0.00 mm

19:40

16.7 C

1002.6 hpa

79 %

16.1 km/h aus 104

33.8 km/h aus SSW

13.1 C

15.3 C

15.2 C

16.8 C

0 W/m

0.00 mm

19:45

16.7 C

1002.8 hpa

79 %

16.1 km/h aus 111

37.0 km/h aus SSW

13.0 C

15.2 C

15.2 C

16.7 C

0 W/m

0.00 mm

19:50

16.6 C

1002.8 hpa

79 %

16.1 km/h aus 107

29.0 km/h aus SW

12.9 C

15.1 C

15.1 C

16.6 C

0 W/m

0.00 mm

19:55

16.5 C

1002.8 hpa

79 %

16.1 km/h aus 108

29.0 km/h aus SSW

12.8 C

15.0 C

14.9 C

16.6 C

0 W/m

0.00 mm

20:00

16.5 C

1002.8 hpa

80 %

8.0 km/h aus 104

16.1 km/h aus SSW

13.0 C

16.6 C

16.5 C

16.6 C

0 W/m

0.00 mm

20:05

16.6 C

1002.8 hpa

80 %

11.3 km/h aus 107

20.9 km/h aus SSW

13.1 C

16.4 C

16.3 C

16.7 C

0 W/m

0.00 mm

20:10

16.6 C

1002.8 hpa

80 %

11.3 km/h aus 104

19.3 km/h aus SW

13.1 C

16.6 C

16.4 C

16.7 C

0 W/m

0.00 mm

20:15

16.6 C

1002.9 hpa

81 %

11.3 km/h aus 108

20.9 km/h aus S

13.3 C

16.4 C

16.3 C

16.7 C

0 W/m

0.00 mm

20:20

16.4 C

1002.9 hpa

81 %

9.7 km/h aus 105

17.7 km/h aus SSW

13.2 C

16.4 C

16.4 C

16.5 C

0 W/m

0.00 mm

20:25

16.3 C

1002.9 hpa

82 %

9.7 km/h aus 106

17.7 km/h aus SSE

13.3 C

16.3 C

16.3 C

16.4 C

0 W/m

0.00 mm

20:30

16.2 C

1003.0 hpa

83 %

9.7 km/h aus 111

17.7 km/h aus S

13.3 C

16.2 C

16.1 C

16.3 C

0 W/m

0.00 mm

20:35

16.1 C

1003.0 hpa

83 %

9.7 km/h aus 105

19.3 km/h aus S

13.2 C

16.1 C

16.0 C

16.2 C

0 W/m

0.00 mm

20:40

16.1 C

1003.0 hpa

83 %

11.3 km/h aus 110

19.3 km/h aus SSW

13.2 C

15.8 C

15.7 C

16.1 C

0 W/m

0.00 mm

20:45

16.1 C

1003.0 hpa

83 %

11.3 km/h aus 103

19.3 km/h aus SSW

13.2 C

15.8 C

15.8 C

16.2 C

0 W/m

0.00 mm

20:50

16.1 C

1003.0 hpa

84 %

9.7 km/h aus 107

16.1 km/h aus SSW

13.4 C

16.1 C

16.0 C

16.2 C

0 W/m

0.00 mm

20:55

16.1 C

1003.0 hpa

84 %

11.3 km/h aus 109

25.7 km/h aus SSW

13.4 C

15.9 C

15.8 C

16.2 C

0 W/m

0.00 mm

21:00

16.1 C

1003.3 hpa

85 %

16.1 km/h aus 115

25.7 km/h aus SW

13.5 C

14.6 C

14.4 C

16.2 C

0 W/m

0.00 mm

21:05

15.9 C

1003.3 hpa

85 %

16.1 km/h aus 108

29.0 km/h aus SSW

13.4 C

14.4 C

14.3 C

16.0 C

0 W/m

0.00 mm

21:10

15.7 C

1003.3 hpa

86 %

11.3 km/h aus 106

22.5 km/h aus SSW

13.4 C

15.4 C

15.3 C

15.8 C

0 W/m

0.00 mm

21:15

15.6 C

1003.3 hpa

87 %

9.7 km/h aus 111

17.7 km/h aus SW

13.4 C

15.4 C

15.3 C

15.7 C

0 W/m

0.00 mm

21:20

15.4 C

1003.3 hpa

88 %

9.7 km/h aus 99

19.3 km/h aus S

13.5 C

15.3 C

15.2 C

15.6 C

0 W/m

0.00 mm

21:25

15.3 C

1003.3 hpa

88 %

9.7 km/h aus 105

22.5 km/h aus SSW

13.4 C

15.2 C

15.1 C

15.4 C

0 W/m

0.00 mm

21:30

15.3 C

1003.4 hpa

88 %

12.9 km/h aus 107

24.1 km/h aus SSW

13.4 C

14.6 C

14.4 C

15.4 C

0 W/m

0.00 mm

21:35

15.3 C

1003.4 hpa

88 %

14.5 km/h aus 105

24.1 km/h aus SSW

13.3 C

14.1 C

13.9 C

15.4 C

0 W/m

0.00 mm

21:40

15.2 C

1003.4 hpa

88 %

11.3 km/h aus 103

20.9 km/h aus SW

13.2 C

14.8 C

14.7 C

15.3 C

0 W/m

0.00 mm

21:45

15.2 C

1003.8 hpa

88 %

11.3 km/h aus 103

19.3 km/h aus SSE

13.2 C

14.7 C

14.7 C

15.2 C

0 W/m

0.00 mm

21:50

15.1 C

1003.8 hpa

88 %

11.3 km/h aus 106

17.7 km/h aus S

13.1 C

14.6 C

14.6 C

15.2 C

0 W/m

0.00 mm

21:55

15.0 C

1003.8 hpa

88 %

12.9 km/h aus 103

20.9 km/h aus S

13.0 C

14.1 C

14.1 C

15.1 C

0 W/m

0.00 mm

22:00

15.0 C

1003.9 hpa

89 %

11.3 km/h aus 108

17.7 km/h aus SSW

13.2 C

14.6 C

14.4 C

15.1 C

0 W/m

0.25 mm

22:05

15.0 C

1003.9 hpa

89 %

11.3 km/h aus 100

22.5 km/h aus SW

13.2 C

14.6 C

14.4 C

15.1 C

0 W/m

0.00 mm

22:10

14.9 C

1003.9 hpa

89 %

11.3 km/h aus 99

24.1 km/h aus SW

13.1 C

14.5 C

14.4 C

15.1 C

0 W/m

0.00 mm

22:15

14.8 C

1003.9 hpa

89 %

14.5 km/h aus 103

25.7 km/h aus SW

13.0 C

13.4 C

13.3 C

14.8 C

0 W/m

0.00 mm

22:20

14.7 C

1003.9 hpa

90 %

8.0 km/h aus 105

17.7 km/h aus WSW

13.1 C

14.6 C

14.6 C

14.8 C

0 W/m

0.00 mm

22:25

14.7 C

1003.9 hpa

90 %

11.3 km/h aus 103

20.9 km/h aus SSW

13.0 C

14.1 C

14.1 C

14.7 C

0 W/m

0.00 mm

22:30

14.6 C

1004.0 hpa

90 %

12.9 km/h aus 102

25.7 km/h aus SSW

13.0 C

13.7 C

13.6 C

14.7 C

0 W/m

0.25 mm

22:35

14.6 C

1004.0 hpa

90 %

11.3 km/h aus 113

19.3 km/h aus SW

12.9 C

13.9 C

13.9 C

14.6 C

0 W/m

0.00 mm

22:40

14.6 C

1004.0 hpa

91 %

9.7 km/h aus 109

19.3 km/h aus SSW

13.1 C

14.2 C

14.1 C

14.7 C

0 W/m

0.00 mm

22:45

14.5 C

1004.2 hpa

91 %

8.0 km/h aus 104

16.1 km/h aus SSW

13.0 C

14.3 C

14.3 C

14.6 C

0 W/m

0.00 mm

22:50

14.5 C

1004.2 hpa

91 %

8.0 km/h aus 106

17.7 km/h aus SSW

13.0 C

14.3 C

14.3 C

14.6 C

0 W/m

0.00 mm

22:55

14.4 C

1004.2 hpa

91 %

11.3 km/h aus 106

19.3 km/h aus SSW

13.0 C

13.8 C

13.8 C

14.5 C

0 W/m

0.00 mm

23:00

14.4 C

1004.4 hpa

91 %

8.0 km/h aus 105

16.1 km/h aus SW

13.0 C

14.3 C

14.2 C

14.5 C

0 W/m

0.00 mm

23:05

14.4 C

1004.4 hpa

91 %

9.7 km/h aus 109

14.5 km/h aus S

12.9 C

14.0 C

13.9 C

14.4 C

0 W/m

0.00 mm

23:10

14.4 C

1004.4 hpa

91 %

8.0 km/h aus 111

16.1 km/h aus SSW

12.9 C

14.2 C

14.2 C

14.4 C

0 W/m

0.00 mm

23:15

14.3 C

1004.3 hpa

91 %

6.4 km/h aus 104

12.9 km/h aus S

12.9 C

14.4 C

14.3 C

14.4 C

0 W/m

0.00 mm

23:20

14.3 C

1004.3 hpa

92 %

6.4 km/h aus 107

16.1 km/h aus SSW

13.1 C

14.4 C

14.3 C

14.4 C

0 W/m

0.00 mm

23:25

14.3 C

1004.3 hpa

92 %

8.0 km/h aus 104

11.3 km/h aus SSW

13.0 C

14.1 C

14.0 C

14.4 C

0 W/m

0.00 mm

23:30

14.2 C

1004.4 hpa

92 %

8.0 km/h aus 110

16.1 km/h aus SSW

12.9 C

14.1 C

13.9 C

14.3 C

0 W/m

0.00 mm

23:35

14.2 C

1004.4 hpa

92 %

6.4 km/h aus 106

11.3 km/h aus SSW

12.9 C

14.3 C

14.2 C

14.3 C

0 W/m

0.00 mm

23:40

14.2 C

1004.4 hpa

92 %

8.0 km/h aus 108

14.5 km/h aus SSW

12.9 C

14.0 C

13.9 C

14.3 C

0 W/m

0.00 mm

23:45

14.2 C

1004.3 hpa

92 %

4.8 km/h aus 108

11.3 km/h aus SSW

12.9 C

14.3 C

14.2 C

14.3 C

0 W/m

0.00 mm

23:50

14.2 C

1004.3 hpa

92 %

4.8 km/h aus 105

6.4 km/h aus SSW

12.9 C

14.3 C

14.2 C

14.3 C

0 W/m

0.00 mm

23:55

14.1 C

1004.3 hpa

92 %

4.8 km/h aus 106

8.0 km/h aus SSW

12.8 C

14.2 C

14.1 C

14.2 C

0 W/m

0.00 mm